Date String (YYYY-MM-DD hh:mm:ss) UTC,Instrument flags,Ambient pressure (hPa),Sample flow (lpm),Bypass flow (lpm),Sample temperature (°C),Ambient temperature (°C),ASC tube jacket temperature (°C),LED temperature (°C),Box temperature (°C),Sample RH (%),Span deviation,Mass concentration (μg/m³),Mass concentration (μg/m³),Mass concentration (μg/m³)
DateTimeUTC,F1_M11,P_M11,Q1_M11,Q2_M11,T1_M11,T2_M11,T3_M11,T4_M11,T5_M11,U1_M11,ZSPAN_M11,X2_M11,X0_M11,X1_M11
2022-04-06 20:00:00,,0828.9,5.00,0.00,21.7,20.6,00.0,30.7,23.4,04.1,0000.0,0000.76,0002.66,0000.52
2022-04-06 20:01:00,,0828.8,5.00,0.00,21.7,20.6,00.0,30.7,23.4,04.2,0000.0,0000.77,0002.68,0000.52
2022-04-06 20:02:00,,0829.0,5.00,0.00,21.7,20.6,00.0,30.7,23.4,04.1,0000.0,0000.77,0002.63,0000.52
2022-04-06 20:03:00,,0828.7,5.01,0.00,21.7,21.2,00.0,30.8,23.5,04.2,0000.0,0000.83,0002.74,0000.51
2022-04-06 20:04:00,,0828.9,5.01,0.00,21.9,22.3,00.0,30.8,23.9,04.1,0000.0,0000.86,0002.56,0000.52
2022-04-06 20:05:00,,0828.8,4.99,0.00,22.0,23.1,00.0,30.9,24.2,04.1,0000.0,0000.87,0002.17,0000.52
2022-04-06 20:06:00,,0828.8,5.01,0.00,22.1,23.0,00.0,30.9,24.2,04.3,0000.0,0000.89,0002.42,0000.52
2022-04-06 20:07:00,,0828.8,5.00,0.00,22.1,22.7,00.0,30.9,24.1,04.2,0000.0,0000.92,0002.52,0000.52
2022-04-06 20:08:00,,0828.8,5.00,0.00,22.2,22.4,00.0,31.0,24.1,04.2,0000.0,0000.91,0002.50,0000.52
2022-04-06 20:09:00,,0828.4,4.99,0.00,22.2,22.1,00.0,31.0,24.0,04.2,0000.0,0000.93,0002.53,0000.51
2022-04-06 20:10:00,,0828.9,5.01,0.00,22.2,21.9,00.0,31.0,24.0,04.2,0000.0,0000.96,0002.69,0000.52
2022-04-06 20:11:00,,0828.8,5.01,0.00,22.1,21.7,00.0,31.0,24.0,04.2,0000.0,0000.95,0002.33,0000.51
2022-04-06 20:12:00,,0829.2,4.98,0.00,22.1,21.6,00.0,31.0,24.0,04.2,0000.0,0000.93,0002.23,0000.52
2022-04-06 20:13:00,,0828.6,5.01,0.00,22.1,21.5,00.0,31.0,23.9,04.2,0000.0,0000.90,0002.35,0000.51
2022-04-06 20:14:00,,0828.7,5.00,0.00,22.1,21.4,00.0,31.0,23.9,04.1,0000.0,0000.90,0002.86,0000.52
2022-04-06 20:15:00,,0828.9,5.01,0.00,22.1,21.3,00.0,31.0,23.8,04.1,0000.0,0000.91,0002.91,0000.52
2022-04-06 20:16:00,,0829.1,5.00,0.00,22.1,21.3,00.0,31.0,23.8,04.1,0000.0,0000.93,0002.87,0000.53
2022-04-06 20:17:00,,0828.6,5.00,0.00,22.1,21.2,00.0,31.0,23.8,04.2,0000.0,0000.96,0002.77,0000.55
2022-04-06 20:18:00,,0828.9,4.99,0.00,22.0,21.2,00.0,31.0,23.8,04.2,0000.0,0000.93,0002.64,0000.55
2022-04-06 20:19:00,,0828.7,5.01,0.00,22.0,21.1,00.0,31.0,23.8,04.3,0000.0,0000.95,0002.69,0000.56
2022-04-06 20:20:00,,0828.8,4.99,0.00,22.0,21.1,00.0,31.0,23.8,04.3,0000.0,0000.99,0002.86,0000.56
2022-04-06 20:21:00,,0829.0,5.01,0.00,22.0,21.0,00.0,31.0,23.7,04.4,0000.0,0000.98,0002.73,0000.56
2022-04-06 20:22:00,,0828.9,4.99,0.00,22.0,21.0,00.0,31.0,23.7,04.4,0000.0,0000.99,0002.67,0000.58
2022-04-06 20:23:00,,0828.7,5.00,0.00,22.0,21.0,00.0,31.0,23.7,04.3,0000.0,0000.98,0002.63,0000.58
2022-04-06 20:24:00,,0828.9,5.00,0.00,22.0,21.0,00.0,31.0,23.7,04.1,0000.0,0000.98,0002.51,0000.59
2022-04-06 20:25:00,,0828.9,5.00,0.00,22.0,21.0,00.0,31.0,23.7,04.2,0000.0,0000.95,0001.89,0000.59
2022-04-06 20:26:00,,0828.7,5.01,0.00,21.9,21.0,00.0,31.0,23.6,04.3,0000.0,0000.92,0001.74,0000.58
2022-04-06 20:27:00,,0828.8,5.00,0.00,21.9,21.0,00.0,31.0,23.6,04.2,0000.0,0000.88,0001.64,0000.56
2022-04-06 20:28:00,,0828.8,5.01,0.00,21.9,21.0,00.0,31.0,23.6,04.3,0000.0,0000.83,0001.52,0000.55
2022-04-06 20:29:00,,0829.0,5.00,0.00,21.9,20.9,00.0,31.0,23.6,04.1,0000.0,0000.83,0001.50,0000.54
2022-04-06 20:30:00,,0828.9,5.00,0.00,21.9,20.9,00.0,30.9,23.6,04.1,0000.0,0000.80,0001.43,0000.54
2022-04-06 20:31:00,,0829.1,5.00,0.00,21.9,20.9,00.0,30.9,23.6,04.1,0000.0,0000.77,0001.34,0000.54
2022-04-06 20:32:00,,0829.2,5.00,0.00,21.9,20.9,00.0,30.9,23.6,04.3,0000.0,0000.79,0002.33,0000.54
2022-04-06 20:33:00,,0829.1,4.98,0.00,21.9,20.9,00.0,30.9,23.6,04.2,0000.0,0000.79,0002.34,0000.54
2022-04-06 20:34:00,,0829.2,5.01,0.00,21.9,20.9,00.0,30.9,23.6,04.1,0000.0,0000.78,0002.31,0000.53
2022-04-06 20:35:00,,0829.2,5.00,0.00,21.9,20.9,00.0,30.9,23.6,04.1,0000.0,0000.80,0002.40,0000.53
2022-04-06 20:36:00,,0829.0,5.00,0.00,21.9,20.9,00.0,30.9,23.5,04.1,0000.0,0000.78,0002.40,0000.53
2022-04-06 20:37:00,,0828.9,4.99,0.00,21.9,20.9,00.0,30.9,23.6,04.3,0000.0,0000.81,0002.44,0000.53
2022-04-06 20:38:00,,0829.1,5.00,0.00,21.9,20.9,00.0,30.9,23.6,04.1,0000.0,0000.85,0002.57,0000.54
2022-04-06 20:39:00,,0829.1,5.00,0.00,21.9,20.9,00.0,30.9,23.6,04.0,0000.0,0000.87,0002.64,0000.54
2022-04-06 20:40:00,,0829.1,5.00,0.00,21.9,20.9,00.0,30.9,23.6,04.0,0000.0,0000.89,0003.14,0000.55
2022-04-06 20:41:00,,0828.8,5.01,0.00,21.9,20.9,00.0,30.9,23.6,04.2,0000.0,0000.91,0003.30,0000.56
2022-04-06 20:42:00,,0828.9,5.00,0.00,21.9,20.8,00.0,30.9,23.6,04.2,0000.0,0000.91,0003.57,0000.56
2022-04-06 20:43:00,,0828.9,5.01,0.00,21.8,20.8,00.0,30.9,23.6,04.3,0000.0,0000.88,0002.56,0000.55
2022-04-06 20:44:00,,0829.0,4.99,0.00,21.8,20.8,00.0,30.9,23.5,04.4,0000.0,0000.88,0002.55,0000.56
2022-04-06 20:45:00,,0829.0,4.99,0.00,21.8,20.9,00.0,30.9,23.6,04.4,0000.0,0000.89,0002.60,0000.56
2022-04-06 20:46:00,,0829.1,5.01,0.00,21.8,20.9,00.0,30.9,23.6,04.3,0000.0,0000.87,0002.94,0000.54
2022-04-06 20:47:00,,0829.1,5.01,0.00,21.8,20.8,00.0,30.8,23.5,04.3,0000.0,0000.89,0003.70,0000.54
2022-04-06 20:48:00,,0829.2,4.98,0.00,21.8,20.8,00.0,30.8,23.5,04.2,0000.0,0000.89,0003.73,0000.53
2022-04-06 20:49:00,,0829.2,5.00,0.00,21.8,20.8,00.0,30.8,23.5,04.4,0000.0,0001.01,0004.07,0000.53
2022-04-06 20:50:00,,0829.2,5.01,0.00,21.8,20.8,00.0,30.8,23.5,04.4,0000.0,0001.07,0005.10,0000.54
2022-04-06 20:51:00,,0829.2,5.00,0.00,21.8,20.8,00.0,30.8,23.5,04.4,0000.0,0001.13,0006.39,0000.54
2022-04-06 20:52:00,,0829.2,5.00,0.00,21.9,20.8,00.0,30.8,23.5,04.4,0000.0,0001.14,0006.56,0000.53
2022-04-06 20:53:00,,0829.1,5.00,0.00,21.9,20.9,00.0,30.8,23.5,04.5,0000.0,0001.15,0006.33,0000.53
2022-04-06 20:54:00,,0829.2,5.00,0.00,21.9,20.9,00.0,30.8,23.6,04.4,0000.0,0001.14,0006.24,0000.53
2022-04-06 20:55:00,,0829.2,5.00,0.00,21.9,20.9,00.0,30.9,23.6,04.4,0000.0,0001.11,0006.19,0000.52
2022-04-06 20:56:00,,0829.1,5.01,0.00,21.9,20.9,00.0,30.8,23.5,04.4,0000.0,0001.11,0006.21,0000.52
2022-04-06 20:57:00,,0829.2,4.99,0.00,21.9,20.9,00.0,30.9,23.5,04.4,0000.0,0001.16,0006.45,0000.52
2022-04-06 20:58:00,,0829.2,4.99,0.00,21.9,20.9,00.0,30.9,23.5,04.3,0000.0,0001.18,0005.51,0000.52
2022-04-06 20:59:00,,0829.2,5.01,0.00,21.9,20.9,00.0,30.9,23.6,04.3,0000.0,0001.17,0005.46,0000.52
